When you browse on this site, cookies collect data to enhance your experience and personalize the content and advertising you see.
Visit our Privacy Policy to learn more. By continuing to use the site, you agree to this use of cookies and data.
  • In Hungary
  • List of Countries
  • For 7 days
  • Water Temperature
  • Weather Map
  • News
  • Weather Widgets
  • user-avatar
    Login

    Hourly Weather Sneckaya Luka

    Today, 21 February, Friday

    Time Temperature Precipitation Wind Pressure Humidity
    00:00 -1°C° 0 mm 2 mps 751 mmHg 94%
    01:00 -1°C° 0 mm 2 mps 751 mmHg 94%
    02:00 -1°C° 0 mm 2 mps 751 mmHg 96%
    03:00 -1°C° 0 mm 2 mps 751 mmHg 96%
    04:00 -1°C° 0 mm 2 mps 751 mmHg 96%
    05:00 -2°C° 0 mm 2 mps 751 mmHg 96%
    06:00 -1°C° 0 mm 2 mps 751 mmHg 96%
    07:00 -1°C° 0 mm 2 mps 751 mmHg 96%
    08:00 -1°C° 0 mm 2 mps 752 mmHg 96%
    15:00 +3°C° 0 mm 2 mps 751 mmHg 86%
    16:00 +2°C° 0 mm 2 mps 751 mmHg 89%
    17:00 +1°C° 0 mm 2 mps 751 mmHg 92%
    18:00 +1°C° 0 mm 2 mps 752 mmHg 93%
    19:00 +1°C° 0 mm 2 mps 752 mmHg 94%
    20:00 +1°C° 0 mm 2 mps 753 mmHg 95%
    21:00 +1°C° 0 mm 2 mps 753 mmHg 95%
    22:00 -1°C° 0 mm 2 mps 753 mmHg 96%
    23:00 -1°C° 0 mm 2 mps 753 mmHg 96%

    Tomorrow, 22 February, Saturday

    Time Temperature Precipitation Wind Pressure Humidity
    00:00 -1°C° 0 mm 2 mps 753 mmHg 96%
    01:00 -1°C° 0 mm 2 mps 753 mmHg 96%
    02:00 -1°C° 0 mm 2 mps 753 mmHg 96%
    03:00 -1°C° 0.1 mm 2 mps 753 mmHg 96%
    04:00 -1°C° 0.1 mm 2 mps 753 mmHg 97%
    05:00 -1°C° 0.1 mm 2 mps 753 mmHg 97%
    06:00 -1°C° 0.1 mm 2 mps 754 mmHg 96%
    07:00 -1°C° 0.1 mm 2 mps 754 mmHg 95%
    08:00 -2°C° 0.1 mm 2 mps 754 mmHg 94%
    09:00 -1°C° 0 mm 2 mps 754 mmHg 92%
    10:00 0°C° 0 mm 3 mps 754 mmHg 89%
    11:00 0°C° 0 mm 3 mps 754 mmHg 87%
    12:00 +1°C° 0 mm 3 mps 754 mmHg 85%
    13:00 +1°C° 0 mm 3 mps 753 mmHg 84%
    14:00 0°C° 0 mm 4 mps 753 mmHg 82%
    15:00 +1°C° 0 mm 3 mps 753 mmHg 83%
    16:00 0°C° 0 mm 3 mps 752 mmHg 84%
    17:00 -1°C° 0 mm 3 mps 752 mmHg 85%
    18:00 -2°C° 0 mm 4 mps 751 mmHg 85%
    19:00 -2°C° 0 mm 4 mps 751 mmHg 85%
    20:00 -2°C° 0 mm 5 mps 751 mmHg 85%
    21:00 -2°C° 0 mm 5 mps 750 mmHg 84%
    22:00 -3°C° 0 mm 6 mps 749 mmHg 83%
    23:00 -4°C° 0 mm 6 mps 748 mmHg 83%

    Day after tomorrow, 23 February, Sunday

    Time Temperature Precipitation Wind Pressure Humidity
    00:00 -3°C° 0 mm 7 mps 747 mmHg 82%
    01:00 -3°C° 0 mm 7 mps 747 mmHg 82%
    02:00 -4°C° 0 mm 8 mps 746 mmHg 81%
    03:00 -4°C° 0 mm 8 mps 744 mmHg 82%
    04:00 -4°C° 0 mm 9 mps 743 mmHg 82%
    05:00 -4°C° 0 mm 9 mps 742 mmHg 82%
    06:00 -4°C° 0.6 mm 9 mps 741 mmHg 86%
    07:00 -4°C° 0.6 mm 10 mps 740 mmHg 90%
    08:00 -4°C° 0.6 mm 10 mps 739 mmHg 94%
    09:00 -4°C° 0.6 mm 10 mps 738 mmHg 95%
    10:00 -4°C° 0.6 mm 9 mps 737 mmHg 96%
    11:00 -3°C° 0.6 mm 9 mps 736 mmHg 96%
    12:00 -2°C° 0.3 mm 8 mps 736 mmHg 97%
    13:00 -2°C° 0.3 mm 7 mps 736 mmHg 97%
    14:00 -2°C° 0.3 mm 6 mps 735 mmHg 98%
    15:00 -1°C° 0.2 mm 5 mps 735 mmHg 95%
    16:00 -1°C° 0.2 mm 4 mps 735 mmHg 93%
    17:00 0°C° 0.2 mm 3 mps 735 mmHg 91%
    18:00 -1°C° 0 mm 4 mps 735 mmHg 89%
    19:00 -2°C° 0 mm 4 mps 735 mmHg 88%
    20:00 -2°C° 0 mm 4 mps 735 mmHg 86%
    21:00 -2°C° 0 mm 4 mps 735 mmHg 86%
    22:00 -2°C° 0 mm 5 mps 735 mmHg 86%
    23:00 -2°C° 0 mm 5 mps 735 mmHg 86%

    24 February, Monday

    Time Temperature Precipitation Wind Pressure Humidity
    00:00 -4°C° 0 mm 5 mps 735 mmHg 87%
    01:00 -4°C° 0 mm 5 mps 734 mmHg 87%
    02:00 -4°C° 0 mm 5 mps 734 mmHg 88%
    03:00 -3°C° 0 mm 4 mps 734 mmHg 89%
    04:00 -4°C° 0 mm 4 mps 733 mmHg 91%
    05:00 -4°C° 0 mm 4 mps 732 mmHg 92%
    06:00 -4°C° 0 mm 4 mps 733 mmHg 91%
    07:00 -2°C° 0 mm 3 mps 733 mmHg 91%
    08:00 -2°C° 0 mm 3 mps 733 mmHg 90%
    09:00 -2°C° 0 mm 3 mps 732 mmHg 88%
    10:00 -1°C° 0 mm 2 mps 732 mmHg 87%
    11:00 +1°C° 0 mm 2 mps 732 mmHg 85%
    12:00 +2°C° 0 mm 1 mps 732 mmHg 85%
    13:00 +2°C° 0 mm 1 mps 732 mmHg 84%
    14:00 +2°C° 0 mm 1 mps 732 mmHg 83%
    15:00 +2°C° 0 mm 1 mps 732 mmHg 85%
    16:00 +1°C° 0 mm 1 mps 732 mmHg 86%
    17:00 +1°C° 0 mm 1 mps 733 mmHg 88%
    18:00 -1°C° 0 mm 2 mps 733 mmHg 88%
    19:00 -1°C° 0 mm 2 mps 734 mmHg 88%
    20:00 -1°C° 0 mm 3 mps 734 mmHg 89%
    21:00 -2°C° 0 mm 4 mps 735 mmHg 88%
    22:00 -2°C° 0 mm 5 mps 735 mmHg 87%
    23:00 -3°C° 0 mm 6 mps 735 mmHg 86%

    25 February, Tuesday

    Time Temperature Precipitation Wind Pressure Humidity
    00:00 -4°C° 0 mm 6 mps 736 mmHg 85%
    01:00 -4°C° 0 mm 6 mps 736 mmHg 83%
    02:00 -5°C° 0 mm 6 mps 736 mmHg 82%
    03:00 -5°C° 0 mm 6 mps 737 mmHg 81%
    04:00 -5°C° 0 mm 6 mps 737 mmHg 81%
    05:00 -5°C° 0 mm 6 mps 738 mmHg 80%
    06:00 -5°C° 0 mm 6 mps 738 mmHg 80%
    07:00 -5°C° 0 mm 6 mps 739 mmHg 80%
    08:00 -5°C° 0 mm 6 mps 739 mmHg 79%
    09:00 -4°C° 0 mm 5 mps 739 mmHg 75%
    10:00 -4°C° 0 mm 5 mps 740 mmHg 71%
    11:00 -2°C° 0 mm 5 mps 740 mmHg 66%
    12:00 -1°C° 0 mm 5 mps 740 mmHg 63%
    13:00 -1°C° 0 mm 5 mps 740 mmHg 61%
    14:00 0°C° 0 mm 5 mps 740 mmHg 58%
    15:00 -1°C° 0 mm 4 mps 739 mmHg 62%
    16:00 -2°C° 0 mm 4 mps 739 mmHg 66%
    17:00 -1°C° 0 mm 3 mps 739 mmHg 71%
    18:00 -2°C° 0 mm 4 mps 739 mmHg 73%
    19:00 -4°C° 0 mm 5 mps 739 mmHg 76%
    20:00 -4°C° 0 mm 6 mps 739 mmHg 78%
    21:00 -4°C° 0 mm 6 mps 738 mmHg 81%
    22:00 -4°C° 0 mm 6 mps 737 mmHg 84%
    23:00 -3°C° 0 mm 6 mps 737 mmHg 88%

    26 February, Wednesday

    Time Temperature Precipitation Wind Pressure Humidity
    00:00 -3°C° 0.1 mm 6 mps 736 mmHg 90%
    01:00 -3°C° 0.1 mm 6 mps 736 mmHg 92%
    02:00 -3°C° 0.1 mm 6 mps 735 mmHg 94%
    03:00 -3°C° 0.1 mm 6 mps 735 mmHg 94%
    04:00 -2°C° 0.1 mm 6 mps 734 mmHg 95%
    05:00 -2°C° 0.1 mm 6 mps 733 mmHg 96%
    06:00 -2°C° 0.2 mm 6 mps 733 mmHg 96%
    07:00 -1°C° 0.2 mm 7 mps 733 mmHg 96%
    08:00 -1°C° 0.2 mm 7 mps 732 mmHg 96%
    09:00 -1°C° 0.2 mm 7 mps 732 mmHg 96%
    10:00 -1°C° 0.2 mm 7 mps 732 mmHg 95%
    11:00 -1°C° 0.2 mm 7 mps 732 mmHg 95%
    12:00 +1°C° 0 mm 6 mps 732 mmHg 93%
    13:00 +1°C° 0 mm 6 mps 732 mmHg 92%
    14:00 +1°C° 0 mm 6 mps 732 mmHg 90%
    15:00 0°C° 0 mm 5 mps 732 mmHg 90%
    16:00 0°C° 0 mm 5 mps 732 mmHg 91%
    17:00 0°C° 0 mm 4 mps 733 mmHg 91%
    18:00 0°C° 0 mm 4 mps 733 mmHg 92%
    19:00 -1°C° 0 mm 4 mps 734 mmHg 93%
    20:00 -1°C° 0 mm 4 mps 734 mmHg 94%
    21:00 0°C° 0 mm 3 mps 734 mmHg 95%
    22:00 -1°C° 0 mm 3 mps 734 mmHg 95%
    23:00 -1°C° 0 mm 3 mps 735 mmHg 96%
    Show more